• In Romania
  • List of Countries
  • For 7 days
  • Water Temperature
  • Satellite Maps
  • Weather Map
  • Weather Widgets
  • user-avatar
    Login

    Hourly Weather Djelfa

    Today, 26 September, Tuesday

    Time Temperature Precipitation Wind Pressure Humidity
    00:00 +19°C° 0 mm 0 mps 667 mmHg 30%
    01:00 +18°C° 0 mm 0 mps 667 mmHg 31%
    02:00 +18°C° 0 mm 0 mps 667 mmHg 33%
    03:00 +17°C° 0 mm 0 mps 666 mmHg 34%
    04:00 +17°C° 0 mm 0 mps 666 mmHg 35%
    05:00 +17°C° 0 mm 0 mps 666 mmHg 35%
    06:00 +16°C° 0 mm 0 mps 666 mmHg 36%
    07:00 +20°C° 0 mm 1 mps 667 mmHg 32%
    08:00 +22°C° 0 mm 1 mps 668 mmHg 28%
    09:00 +24°C° 0 mm 1 mps 668 mmHg 24%
    10:00 +25°C° 0 mm 1 mps 668 mmHg 22%
    11:00 +26°C° 0 mm 1 mps 668 mmHg 20%
    12:00 +26°C° 0 mm 1 mps 668 mmHg 18%
    13:00 +27°C° 0 mm 1 mps 668 mmHg 17%
    14:00 +28°C° 0 mm 2 mps 668 mmHg 16%
    15:00 +28°C° 0 mm 2 mps 667 mmHg 15%
    16:00 +27°C° 0 mm 2 mps 667 mmHg 16%
    17:00 +27°C° 0 mm 2 mps 667 mmHg 18%
    18:00 +26°C° 0 mm 3 mps 667 mmHg 19%
    19:00 +25°C° 0 mm 2 mps 667 mmHg 21%
    20:00 +24°C° 0 mm 2 mps 667 mmHg 23%
    21:00 +23°C° 0 mm 2 mps 668 mmHg 25%
    22:00 +23°C° 0 mm 2 mps 668 mmHg 28%
    23:00 +21°C° 0 mm 2 mps 667 mmHg 31%

    Tomorrow, 27 September, Wednesday

    Time Temperature Precipitation Wind Pressure Humidity
    00:00 +21°C° 0 mm 1 mps 667 mmHg 35%
    01:00 +21°C° 0 mm 1 mps 667 mmHg 39%
    02:00 +20°C° 0 mm 1 mps 667 mmHg 42%
    03:00 +19°C° 0 mm 1 mps 666 mmHg 46%
    04:00 +19°C° 0 mm 1 mps 666 mmHg 47%
    05:00 +19°C° 0 mm 1 mps 667 mmHg 49%
    06:00 +18°C° 0 mm 1 mps 667 mmHg 50%
    07:00 +20°C° 0 mm 1 mps 667 mmHg 46%
    08:00 +22°C° 0 mm 1 mps 668 mmHg 41%
    09:00 +23°C° 0 mm 2 mps 669 mmHg 36%
    10:00 +24°C° 0 mm 2 mps 669 mmHg 33%
    11:00 +25°C° 0 mm 2 mps 669 mmHg 30%
    12:00 +26°C° 0 mm 3 mps 669 mmHg 28%
    13:00 +27°C° 0 mm 3 mps 669 mmHg 27%
    14:00 +27°C° 0 mm 3 mps 668 mmHg 26%
    15:00 +27°C° 0 mm 4 mps 668 mmHg 25%
    16:00 +27°C° 0 mm 4 mps 668 mmHg 26%
    17:00 +26°C° 0 mm 4 mps 668 mmHg 28%
    18:00 +25°C° 0 mm 4 mps 668 mmHg 30%
    19:00 +23°C° 0 mm 4 mps 668 mmHg 32%
    20:00 +23°C° 0 mm 4 mps 669 mmHg 35%
    21:00 +22°C° 0 mm 4 mps 669 mmHg 37%
    22:00 +21°C° 0 mm 3 mps 669 mmHg 42%
    23:00 +20°C° 0 mm 3 mps 669 mmHg 48%

    Day after tomorrow, 28 September, Thursday

    Time Temperature Precipitation Wind Pressure Humidity
    00:00 +20°C° 0 mm 2 mps 669 mmHg 53%
    01:00 +19°C° 0 mm 2 mps 669 mmHg 56%
    02:00 +19°C° 0 mm 2 mps 668 mmHg 59%
    03:00 +19°C° 0 mm 1 mps 668 mmHg 62%
    04:00 +19°C° 0 mm 1 mps 668 mmHg 64%
    05:00 +18°C° 0 mm 1 mps 668 mmHg 66%
    06:00 +18°C° 0 mm 1 mps 669 mmHg 67%
    07:00 +19°C° 0 mm 1 mps 669 mmHg 59%
    08:00 +21°C° 0 mm 1 mps 670 mmHg 51%
    09:00 +20°C° 0 mm 0 mps 670 mmHg 43%
    10:00 +23°C° 0 mm 1 mps 670 mmHg 38%
    11:00 +24°C° 0 mm 1 mps 670 mmHg 32%
    12:00 +26°C° 0 mm 1 mps 670 mmHg 26%
    13:00 +26°C° 0 mm 2 mps 670 mmHg 26%
    14:00 +26°C° 0 mm 3 mps 669 mmHg 26%
    15:00 +26°C° 0 mm 3 mps 669 mmHg 25%
    16:00 +25°C° 0 mm 4 mps 669 mmHg 28%
    17:00 +25°C° 0 mm 4 mps 669 mmHg 30%
    18:00 +23°C° 0 mm 4 mps 669 mmHg 32%
    19:00 +22°C° 0 mm 4 mps 669 mmHg 33%
    20:00 +22°C° 0 mm 3 mps 670 mmHg 34%
    21:00 +22°C° 0 mm 3 mps 670 mmHg 35%
    22:00 +21°C° 0 mm 2 mps 669 mmHg 37%
    23:00 +21°C° 0 mm 2 mps 669 mmHg 38%

    29 September, Friday

    Time Temperature Precipitation Wind Pressure Humidity
    00:00 +20°C° 0 mm 2 mps 669 mmHg 40%
    01:00 +21°C° 0 mm 1 mps 669 mmHg 41%
    02:00 +21°C° 0 mm 1 mps 668 mmHg 43%
    03:00 +20°C° 0 mm 1 mps 668 mmHg 45%
    04:00 +20°C° 0 mm 1 mps 668 mmHg 47%
    05:00 +20°C° 0 mm 1 mps 668 mmHg 49%
    06:00 +19°C° 0 mm 1 mps 668 mmHg 51%
    07:00 +21°C° 0.1 mm 1 mps 669 mmHg 48%
    08:00 +21°C° 0.1 mm 2 mps 669 mmHg 45%
    09:00 +23°C° 0.1 mm 2 mps 670 mmHg 42%
    10:00 +24°C° 0 mm 2 mps 669 mmHg 39%
    11:00 +25°C° 0 mm 2 mps 669 mmHg 36%
    12:00 +26°C° 0 mm 3 mps 669 mmHg 33%
    13:00 +26°C° 0.1 mm 3 mps 669 mmHg 32%
    14:00 +27°C° 0.1 mm 3 mps 668 mmHg 31%
    15:00 +27°C° 0.1 mm 4 mps 668 mmHg 30%
    16:00 +26°C° 0.2 mm 3 mps 668 mmHg 31%
    17:00 +26°C° 0.2 mm 3 mps 668 mmHg 33%
    18:00 +25°C° 0.2 mm 3 mps 668 mmHg 34%
    19:00 +24°C° 0.1 mm 3 mps 668 mmHg 37%
    20:00 +24°C° 0.1 mm 3 mps 668 mmHg 40%
    21:00 +23°C° 0.1 mm 2 mps 668 mmHg 43%
    22:00 +21°C° 0 mm 2 mps 668 mmHg 47%
    23:00 +20°C° 0 mm 2 mps 667 mmHg 52%

    30 September, Saturday

    Time Temperature Precipitation Wind Pressure Humidity
    00:00 +20°C° 0 mm 2 mps 667 mmHg 56%
    01:00 +20°C° 0.1 mm 1 mps 667 mmHg 59%
    02:00 +20°C° 0.1 mm 1 mps 667 mmHg 62%
    03:00 +19°C° 0.1 mm 1 mps 666 mmHg 65%
    04:00 +19°C° 0 mm 1 mps 666 mmHg 66%
    05:00 +18°C° 0 mm 1 mps 666 mmHg 68%
    06:00 +18°C° 0 mm 1 mps 666 mmHg 70%
    07:00 +19°C° 0 mm 1 mps 667 mmHg 64%
    08:00 +20°C° 0 mm 1 mps 667 mmHg 58%
    09:00 +22°C° 0 mm 1 mps 667 mmHg 52%
    10:00 +23°C° 0 mm 1 mps 667 mmHg 47%
    11:00 +24°C° 0 mm 1 mps 667 mmHg 42%
    12:00 +25°C° 0 mm 1 mps 667 mmHg 38%
    13:00 +25°C° 0 mm 2 mps 667 mmHg 35%
    14:00 +26°C° 0 mm 2 mps 666 mmHg 33%
    15:00 +26°C° 0 mm 2 mps 666 mmHg 30%
    16:00 +25°C° 0 mm 3 mps 666 mmHg 31%
    17:00 +25°C° 0 mm 3 mps 666 mmHg 31%
    18:00 +24°C° 0 mm 3 mps 666 mmHg 31%
    19:00 +24°C° 0 mm 3 mps 666 mmHg 32%
    20:00 +23°C° 0 mm 2 mps 666 mmHg 33%
    21:00 +23°C° 0 mm 2 mps 667 mmHg 34%
    22:00 +21°C° 0.1 mm 3 mps 666 mmHg 38%
    23:00 +21°C° 0.1 mm 3 mps 666 mmHg 41%

    1 October, Sunday

    Time Temperature Precipitation Wind Pressure Humidity
    00:00 +21°C° 0.1 mm 3 mps 666 mmHg 45%
    01:00 +20°C° 0 mm 3 mps 665 mmHg 48%
    02:00 +20°C° 0 mm 3 mps 665 mmHg 51%
    03:00 +19°C° 0 mm 3 mps 665 mmHg 55%
    04:00 +19°C° 0.1 mm 3 mps 665 mmHg 56%
    05:00 +19°C° 0.1 mm 3 mps 665 mmHg 57%
    06:00 +18°C° 0.1 mm 3 mps 665 mmHg 59%
    07:00 +19°C° 0.4 mm 4 mps 665 mmHg 55%
    08:00 +20°C° 0.4 mm 5 mps 666 mmHg 50%
    09:00 +21°C° 0.4 mm 6 mps 666 mmHg 46%
    10:00 +22°C° 0.2 mm 6 mps 666 mmHg 43%
    11:00 +23°C° 0.2 mm 6 mps 666 mmHg 41%
    12:00 +24°C° 0.2 mm 6 mps 666 mmHg 38%
    13:00 +24°C° 0.1 mm 6 mps 666 mmHg 39%
    14:00 +23°C° 0.1 mm 6 mps 665 mmHg 39%
    15:00 +23°C° 0.1 mm 6 mps 665 mmHg 40%
    16:00 +22°C° 3.5 mm 5 mps 665 mmHg 50%
    17:00 +20°C° 3.5 mm 5 mps 665 mmHg 59%
    18:00 +17°C° 3.5 mm 5 mps 664 mmHg 69%
    19:00 +18°C° 1.3 mm 4 mps 665 mmHg 68%
    20:00 +18°C° 1.3 mm 4 mps 665 mmHg 68%
    21:00 +18°C° 1.3 mm 3 mps 665 mmHg 67%
    22:00 +18°C° 0.6 mm 3 mps 665 mmHg 66%
    23:00 +19°C° 0.6 mm 3 mps 665 mmHg 65%
    Show more